Location: Unspecified
(0.0000°N, 0.0000°E)
Time: 11:12:58
(UTC+02:00)

Cosmos 1833 Rocket - Visible Passes

Search period start: 24 May 2015 00:00
Search period end: 03 June 2015 00:00
Orbit: 833 x 840 km, 71.0° (Epoch: 23 May)

Date Brightness Start Highest point End Pass type
(mag) Time Alt. Az. Time Alt. Az. Time Alt. Az.
24 May 4.3 05:15:16 30° E 05:15:16 30° E 05:19:09 10° NE visible
24 May 4.1 06:57:01 16° W 06:58:01 17° WNW 07:01:20 10° NW visible
25 May 4.8 04:59:50 22° ENE 04:59:50 22° ENE 05:02:21 10° NE visible
25 May 4.1 06:41:34 19° WNW 06:41:34 19° WNW 06:45:04 10° NNW visible
26 May 5.3 04:44:18 15° ENE 04:44:18 15° ENE 04:45:32 10° NE visible
26 May 4.2 06:26:03 19° NW 06:26:03 19° NW 06:28:44 10° NNW visible
27 May 4.4 06:10:27 18° NW 06:10:27 18° NW 06:12:22 10° NNW visible
28 May 4.7 05:54:47 15° NNW 05:54:47 15° NNW 05:55:58 10° NNW visible
29 May 5.0 05:39:03 12° NNW 05:39:03 12° NNW 05:39:32 10° NNW visible
